Orbital Elements at Epoch 2459000.5 (2020-May-31.0) TDB
Reference: JPL 24 (heliocentric ecliptic J2000)
Element | Value | Uncertainty (1-sigma) | Units |
e | .2184941531295425 | 4.4036e-08 | |
a | 2.443837892307321 | 1.1695e-08 | au |
q | 1.909873601641746 | 1.1057e-07 | au |
i | 1.095762053907981 | 3.7718e-06 | deg |
node | 311.9676526616014 | 0.00023906 | deg |
peri | 33.14986097475227 | 0.00023918 | deg |
M | 269.6058831616833 | 9.3676e-06 | deg |
tp | 2459350.884336764373 (2021-May-16.38433676) | 3.7675e-05 | TDB |
period | 1395.426667653511 3.82 | 1.0017e-05 2.743e-08 | d yr |
n | .2579856099535208 | 1.8519e-09 | deg/d |
Q | 2.977802182972895 | 1.425e-08 | au |
|
| | Orbit Determination Parameters
Additional Information
|